This is the latest recevied weather packets stored in our database for station/object HB9BTL-13. If no packets are shown the sender has not sent any weather packets the latest 10 day(s).
| Time | Temp. | Humidity | Pressure | Rain* | Wind** | Luminosity | Snow |
|---|---|---|---|---|---|---|---|
| 1777800758 | 20.56° C | 59% | 1016.1 hPa | - | - | - | - |
| 1777799853 | 20° C | 58% | 1016.1 hPa | - | - | - | - |
| 1777798947 | 19.44° C | 60% | 1016.2 hPa | - | - | - | - |
| 1777798042 | 19.44° C | 62% | 1016.3 hPa | - | - | - | - |
| 1777797136 | 18.89° C | 66% | 1016.4 hPa | - | - | - | - |
| 1777796231 | 18.89° C | 69% | 1016.7 hPa | - | - | - | - |
| 1777795326 | 18.33° C | 70% | 1016.8 hPa | - | - | - | - |
| 1777794420 | 17.78° C | 71% | 1016.9 hPa | - | - | - | - |
| 1777793515 | 17.78° C | 73% | 1016.9 hPa | - | - | - | - |
| 1777792609 | 17.22° C | 75% | 1016.8 hPa | - | - | - | - |
| 1777791705 | 17.22° C | 76% | 1016.9 hPa | - | - | - | - |
| 1777790799 | 16.67° C | 78% | 1016.8 hPa | - | - | - | - |
| 1777789894 | 16.11° C | 79% | 1016.9 hPa | - | - | - | - |
| 1777788989 | 16.11° C | 79% | 1016.8 hPa | - | - | - | - |
| 1777788083 | 15.56° C | 81% | 1016.8 hPa | - | - | - | - |
| 1777787178 | 15° C | 83% | 1016.7 hPa | - | - | - | - |
| 1777786272 | 15° C | 85% | 1016.5 hPa | - | - | - | - |
| 1777785367 | 15° C | 86% | 1016.6 hPa | - | - | - | - |
| 1777784461 | 15° C | 84% | 1016.5 hPa | - | - | - | - |
| 1777783556 | 15° C | 86% | 1016.5 hPa | - | - | - | - |
| 1777782651 | 14.44° C | 86% | 1016.4 hPa | - | - | - | - |
| 1777781745 | 14.44° C | 85% | 1016.3 hPa | - | - | - | - |
| 1777780840 | 14.44° C | 85% | 1016.3 hPa | - | - | - | - |
| 1777779934 | 13.89° C | 86% | 1016.4 hPa | - | - | - | - |
| 1777779029 | 14.44° C | 86% | 1016.4 hPa | - | - | - | - |
* Rain since midnight (hover to see other rain measurements)
** Current wind speed in m/s (hover to see current wind gust speed)